Weather History for KOVL - April, 2014

Change the Weather History Date:

Friday, April 11, 2014

  Actual Average (KRWF) Record (KRWF)
Temperature  
Mean Temperature 48 °F -  
Max Temperature 62 °F 54 °F 84 °F (1968)
Min Temperature 35 °F 34 °F 11 °F (1939)
Degree Days  
Heating Degree Days 16    
Moisture  
Dew Point 34 °F    
Average Humidity 56    
Maximum Humidity 87    
Minimum Humidity 29    
Precipitation  
Precipitation 0.00 in - - ()
Sea Level Pressure  
Sea Level Pressure 29.92 in    
Wind  
Wind Speed 4 mph (ENE)    
Max Wind Speed 15 mph    
Max Gust Speed 20 mph    
Visibility 10 miles    
Events Rain    
Averages and records for this station are not official NWS values.
T = Trace of Precipitation, MM = Missing Value Source: NWS Daily Summary

Daily Weather History Graph

Daily Weather History Graph

Search for Another Location

Airport or City:

Trip Planner

Search our weather history database for the weather conditions in past years. The results will help you decide how hot, cold, wet, or windy it might be!

Date:

Astronomy

Apr. 11, 2014 Rise Set
Actual Time 6:42 AM CDT 8:00 PM CDT
Civil Twilight 6:12 AM CDT 8:30 PM CDT
Nautical Twilight 5:36 AM CDT 9:07 PM CDT
Astronomical Twilight 4:57 AM CDT 9:45 PM CDT
Moon 4:33 PM CDT (4/11) 4:47 AM CDT (4/11)
Length of Visible Light 14h 18m
Length of Day
13h 17m
Waxing Gibbous, 87% of the Moon is Illuminated
Apr 11
Waxing Gibbous
Apr 15
Full
Apr 22
Last Quarter
Apr 29
New
May 6
First Quarter

Hourly Weather History & Observations

Time (CDT) Temp. Windchill Dew Point Humidity Pressure Visibility Wind Dir Wind Speed Gust Speed Precip Events Conditions
12:14 AM 41.0 °F - 30.2 °F 65% 29.91 in 10.0 mi Calm Calm - N/A   Clear
12:33 AM 41.0 °F - 28.4 °F 61% 29.91 in 10.0 mi Calm Calm - N/A   Scattered Clouds
12:53 AM 39.2 °F - 30.2 °F 70% 29.92 in 10.0 mi Calm Calm - N/A   Mostly Cloudy
1:14 AM 39.2 °F - 30.2 °F 70% 29.92 in 10.0 mi Calm Calm - N/A   Overcast
1:33 AM 39.2 °F - 32.0 °F 75% 29.91 in 10.0 mi Calm Calm - N/A   Overcast
1:53 AM 39.2 °F - 32.0 °F 75% 29.92 in 10.0 mi Calm Calm - N/A   Mostly Cloudy
2:13 AM 39.2 °F - 32.0 °F 75% 29.92 in 10.0 mi Calm Calm - N/A   Scattered Clouds
2:33 AM 39.2 °F - 32.0 °F 75% 29.92 in 10.0 mi Calm Calm - N/A   Scattered Clouds
2:53 AM 39.2 °F - 32.0 °F 75% 29.92 in 10.0 mi Calm Calm - N/A   Mostly Cloudy
3:13 AM 39.2 °F - 32.0 °F 75% 29.92 in 10.0 mi Calm Calm - N/A   Scattered Clouds
3:33 AM 35.6 °F - 32.0 °F 87% 29.92 in 10.0 mi Calm Calm - N/A   Mostly Cloudy
3:53 AM 39.2 °F - 32.0 °F 75% 29.93 in 10.0 mi Calm Calm - N/A   Overcast
4:13 AM 39.2 °F 37.0 °F 32.0 °F 75% 29.93 in 10.0 mi NNW 3.5 mph - N/A   Overcast
4:33 AM 42.8 °F 40.1 °F 30.2 °F 61% 29.94 in 10.0 mi NNW 4.6 mph - N/A   Overcast
4:53 AM 39.2 °F 37.0 °F 32.0 °F 75% 29.94 in 10.0 mi North 3.5 mph - N/A   Overcast
5:13 AM 41.0 °F - 32.0 °F 70% 29.92 in 10.0 mi Calm Calm - N/A   Overcast
5:33 AM 42.8 °F 38.0 °F 32.0 °F 66% 29.91 in 10.0 mi SSE 8.1 mph - N/A Rain Light Rain
5:53 AM 42.8 °F 38.0 °F 32.0 °F 66% 29.89 in 10.0 mi SSE 8.1 mph - N/A Rain Light Rain
6:13 AM 42.8 °F 40.1 °F 32.0 °F 66% 29.87 in 10.0 mi NE 4.6 mph - N/A   Mostly Cloudy
6:33 AM 39.2 °F 35.9 °F 32.0 °F 75% 29.88 in 10.0 mi East 4.6 mph - N/A   Mostly Cloudy
6:53 AM 39.2 °F 35.0 °F 32.0 °F 75% 29.89 in 10.0 mi NE 5.8 mph - N/A   Scattered Clouds
7:13 AM 39.2 °F 35.0 °F 32.0 °F 75% 29.90 in 10.0 mi NE 5.8 mph - N/A   Mostly Cloudy
7:33 AM 39.2 °F 37.0 °F 32.0 °F 75% 29.91 in 10.0 mi ENE 3.5 mph - N/A   Overcast
7:53 AM 39.2 °F 35.9 °F 32.0 °F 75% 29.94 in 10.0 mi NNE 4.6 mph - N/A   Overcast
8:13 AM 41.0 °F 37.1 °F 32.0 °F 70% 29.95 in 10.0 mi NE 5.8 mph - N/A   Overcast
8:33 AM 41.0 °F 37.1 °F 33.8 °F 76% 29.95 in 10.0 mi ENE 5.8 mph - N/A   Mostly Cloudy
8:53 AM 42.8 °F 38.0 °F 33.8 °F 70% 29.95 in 10.0 mi East 8.1 mph - N/A   Scattered Clouds
9:13 AM 46.4 °F 42.9 °F 35.6 °F 66% 29.95 in 10.0 mi East 6.9 mph - N/A   Clear
9:33 AM 48.2 °F - 35.6 °F 62% 29.94 in 10.0 mi East 10.4 mph - N/A   Clear
9:53 AM 50.0 °F - 37.4 °F 62% 29.94 in 10.0 mi ENE 10.4 mph - N/A   Clear
10:13 AM 50.0 °F - 35.6 °F 58% 29.94 in 10.0 mi East 8.1 mph - N/A   Clear
10:33 AM 50.0 °F - 35.6 °F 58% 29.95 in 10.0 mi East 6.9 mph - N/A   Clear
10:53 AM 51.8 °F - 37.4 °F 58% 29.95 in 10.0 mi ESE 9.2 mph - N/A   Clear
11:13 AM 53.6 °F - 37.4 °F 54% 29.96 in 10.0 mi East 4.6 mph - N/A   Clear
11:33 AM 53.6 °F - 37.4 °F 54% 29.96 in 10.0 mi SE 3.5 mph - N/A   Clear
11:53 AM 53.6 °F - 37.4 °F 54% 29.96 in 10.0 mi SSW 3.5 mph - N/A   Clear
12:13 PM 57.2 °F - 37.4 °F 48% 29.96 in 10.0 mi West 3.5 mph - N/A   Clear
12:33 PM 57.2 °F - 35.6 °F 44% 29.96 in 10.0 mi NNW 3.5 mph - N/A   Clear
12:53 PM 59.0 °F - 37.4 °F 45% 29.96 in 10.0 mi West 3.5 mph - N/A   Clear
1:13 PM 59.0 °F - 37.4 °F 45% 29.96 in 10.0 mi NW 8.1 mph - N/A   Clear
1:53 PM 59.0 °F - 33.8 °F 39% 29.95 in 10.0 mi NW 6.9 mph - N/A   Clear
2:13 PM 60.8 °F - 32.0 °F 34% 29.95 in 10.0 mi NW 8.1 mph - N/A   Clear
2:33 PM 59.0 °F - 32.0 °F 36% 29.95 in 10.0 mi NE 4.6 mph - N/A   Clear
2:53 PM 60.8 °F - 33.8 °F 36% 29.94 in 10.0 mi NW 5.8 mph - N/A   Clear
3:13 PM 60.8 °F - 32.0 °F 34% 29.93 in 10.0 mi WSW 5.8 mph - N/A   Clear
3:33 PM 62.6 °F - 32.0 °F 32% 29.92 in 10.0 mi NNW 5.8 mph - N/A   Clear
3:53 PM 60.8 °F - 32.0 °F 34% 29.92 in 10.0 mi NNW 4.6 mph - N/A   Clear
4:13 PM 62.6 °F - 32.0 °F 32% 29.92 in 10.0 mi North 3.5 mph - N/A   Clear
4:33 PM 60.8 °F - 32.0 °F 34% 29.92 in 10.0 mi West 3.5 mph - N/A   Clear
4:53 PM 62.6 °F - 32.0 °F 32% 29.91 in 10.0 mi WNW 6.9 mph - N/A   Clear
5:13 PM 62.6 °F - 30.2 °F 30% 29.90 in 10.0 mi NW 8.1 mph - N/A   Clear
5:33 PM 62.6 °F - 32.0 °F 32% 29.89 in 10.0 mi NW 5.8 mph - N/A   Clear
5:53 PM 60.8 °F - 28.4 °F 29% 29.89 in 10.0 mi Calm Calm - N/A   Clear
6:13 PM 60.8 °F - 33.8 °F 36% 29.89 in 10.0 mi ENE 6.9 mph - N/A   Clear
6:33 PM 59.0 °F - 35.6 °F 42% 29.89 in 10.0 mi East 6.9 mph - N/A   Clear
6:53 PM 59.0 °F - 35.6 °F 42% 29.88 in 10.0 mi East 6.9 mph - N/A   Clear
7:13 PM 59.0 °F - 37.4 °F 45% 29.88 in 10.0 mi East 6.9 mph - N/A   Clear
7:33 PM 57.2 °F - 35.6 °F 44% 29.88 in 10.0 mi East 5.8 mph - N/A   Clear
7:53 PM 57.2 °F - 35.6 °F 44% 29.88 in 10.0 mi East 5.8 mph - N/A   Clear
8:13 PM 57.2 °F - 37.4 °F 48% 29.88 in 10.0 mi East 5.8 mph - N/A   Clear
8:33 PM 57.2 °F - 37.4 °F 48% 29.88 in 10.0 mi East 8.1 mph - N/A   Clear
8:53 PM 57.2 °F - 35.6 °F 44% 29.89 in 10.0 mi East 6.9 mph - N/A   Clear
9:13 PM 53.6 °F - 33.8 °F 47% 29.90 in 10.0 mi East 6.9 mph - N/A   Scattered Clouds
9:33 PM 53.6 °F - 35.6 °F 51% 29.90 in 10.0 mi East 6.9 mph - N/A   Scattered Clouds
9:53 PM 53.6 °F - 33.8 °F 47% 29.89 in 10.0 mi ESE 6.9 mph - N/A   Mostly Cloudy
10:13 PM 53.6 °F - 33.8 °F 47% 29.89 in 10.0 mi SE 11.5 mph - N/A   Overcast
10:33 PM 53.6 °F - 35.6 °F 51% 29.89 in 10.0 mi ESE 8.1 mph - N/A   Overcast
10:53 PM 53.6 °F - 35.6 °F 51% 29.88 in 10.0 mi ESE 8.1 mph - N/A   Scattered Clouds
11:13 PM 53.6 °F - 35.6 °F 51% 29.84 in 10.0 mi East 15.0 mph 19.6 mph N/A   Scattered Clouds
11:33 PM 53.6 °F - 37.4 °F 54% 29.84 in 10.0 mi ESE 10.4 mph - N/A   Scattered Clouds
11:53 PM 50.0 °F - 37.4 °F 62% 29.84 in 10.0 mi ESE 9.2 mph - N/A   Scattered Clouds